TimeCDT,TemperatureF,Dew PointF,Humidity,Sea Level PressureIn,VisibilityMPH,Wind Direction,Wind SpeedMPH,Gust SpeedMPH,PrecipitationIn,Events,Conditions,WindDirDegrees,DateUTC
12:53 AM,59.0,51.1,75,30.05,10.0,NW,8.1,-,N/A,,Clear,320,2013-07-27 05:53:00
1:53 AM,57.9,51.1,78,30.05,10.0,NNW,9.2,-,N/A,,Clear,330,2013-07-27 06:53:00
2:53 AM,55.9,50.0,80,30.05,10.0,NNW,8.1,-,N/A,,Clear,330,2013-07-27 07:53:00
3:53 AM,55.0,50.0,83,30.05,10.0,North,11.5,-,N/A,,Clear,350,2013-07-27 08:53:00
4:53 AM,53.1,48.9,86,30.05,10.0,NNW,6.9,-,N/A,,Clear,340,2013-07-27 09:53:00
5:53 AM,52.0,48.9,89,30.06,10.0,NNW,8.1,-,N/A,,Clear,330,2013-07-27 10:53:00
6:53 AM,53.1,48.9,86,30.07,10.0,North,11.5,-,N/A,,Clear,350,2013-07-27 11:53:00
7:53 AM,55.9,48.9,77,30.08,10.0,North,10.4,-,N/A,,Clear,350,2013-07-27 12:53:00
8:53 AM,59.0,48.0,67,30.09,10.0,NNW,10.4,-,N/A,,Clear,330,2013-07-27 13:53:00
9:53 AM,62.1,46.9,58,30.08,10.0,NNW,12.7,18.4,N/A,,Partly Cloudy,330,2013-07-27 14:53:00
10:53 AM,64.0,46.9,54,30.08,10.0,North,11.5,-,N/A,,Mostly Cloudy,360,2013-07-27 15:53:00
11:53 AM,64.9,45.0,48,30.06,10.0,NNW,15.0,23.0,N/A,,Scattered Clouds,330,2013-07-27 16:53:00
12:53 PM,64.9,44.1,47,30.05,10.0,NW,16.1,24.2,N/A,,Mostly Cloudy,310,2013-07-27 17:53:00
1:53 PM,66.9,43.0,42,30.04,10.0,NNW,20.7,27.6,N/A,,Overcast,340,2013-07-27 18:53:00
2:53 PM,68.0,43.0,40,30.03,10.0,NNW,16.1,31.1,N/A,,Mostly Cloudy,340,2013-07-27 19:53:00
3:53 PM,69.1,43.0,39,30.01,10.0,NNW,11.5,21.9,N/A,,Mostly Cloudy,340,2013-07-27 20:53:00
4:53 PM,69.1,43.0,39,30.01,10.0,NW,16.1,-,N/A,,Scattered Clouds,310,2013-07-27 21:53:00
5:53 PM,69.1,41.0,36,29.99,10.0,NW,15.0,20.7,N/A,,Partly Cloudy,320,2013-07-27 22:53:00
6:53 PM,68.0,42.1,39,29.99,10.0,NW,9.2,-,N/A,,Partly Cloudy,320,2013-07-27 23:53:00
7:53 PM,66.0,42.1,42,29.99,10.0,North,8.1,-,N/A,,Partly Cloudy,350,2013-07-28 00:53:00
8:53 PM,60.1,44.1,55,29.99,10.0,WNW,5.8,-,N/A,,Clear,290,2013-07-28 01:53:00
9:53 PM,55.0,46.0,72,30.00,10.0,West,5.8,-,N/A,,Clear,280,2013-07-28 02:53:00
10:53 PM,54.0,46.0,75,30.01,10.0,West,6.9,-,N/A,,Clear,280,2013-07-28 03:53:00
11:53 PM,54.0,45.0,72,29.99,10.0,West,6.9,-,N/A,,Clear,280,2013-07-28 04:53:00